[[{"header":{"parameterUnit":"m.s-1","parameterCategory":1,"la1":30.2991,"la2":30.254,"lo1":-89.0895,"lo2":-89.0444,"dy":0.0017,"dx":0.0017,"nx":28,"ny":28,"refTime":"2024-10-09T03:00:00:Z","depth":0,"parameterNumber":2,"parameterNumberName":"U-component_of_WINDS"},"data":[0,0,0,0,0,0,0,0,0,0,0,0,0,0,0,0,0,0,0,0,0,0,0,0,0,0,0,0,0,0,0,0,0,0,0,0,0,0,0,0,0,0,0,0,0,0,0,0,0,0,0,0,0,0,0,0,0,0,-1.05,-1.0501,0,-1.0605,-1.0606,-1.0607,-1.0603,-1.0602,-1.06,-1.0599,-1.0709,-1.0713,-1.0717,0,0,0,0,0,0,0,0,0,0,0,0,0,-1.0299,-1.0302,-1.0499,-1.0501,-1.0502,-1.0604,-1.0606,-1.0607,-1.0603,-1.0601,-1.06,-1.0598,-1.0707,-1.0712,-1.0717,0,0,0,0,0,0,0,0,0,0,0,0,0,-1.0393,-1.0303,-1.0499,-1.0512,-1.0515,-1.0604,-1.0606,-1.0608,-1.0604,-1.0601,-1.0599,-1.0597,-1.0705,-1.0712,-1.0718,-1.0802,0,0,-1.0738,-1.0741,0,0,0,0,0,0,0,0,-1.0388,-1.04,-1.0509,-1.0512,-1.0514,-1.0588,-1.0575,-1.0673,-1.0604,-1.057,-1.0599,-1.0596,-1.0671,-1.068,-1.0704,-1.0807,-1.0812,-1.0738,-1.0742,-1.0745,-1.0747,0,0,0,0,0,0,0,-1.0381,-1.0396,-1.0541,-1.0511,-1.0514,-1.0514,-1.0525,-1.0594,-1.0631,-1.0573,-1.0573,-1.0585,-1.0672,-1.0698,-1.0707,-1.0814,-1.0738,-1.0744,-1.0748,-1.075,-1.0994,-1.0997,0,0,0,0,0,0,-1.0371,-1.039,-1.0538,-1.0544,-1.0444,-1.0519,-1.0532,-1.0567,-1.0631,-1.0638,-1.0587,-1.0584,-1.0688,-1.0699,-1.0711,-1.0816,-1.0745,-1.0751,-1.0755,-1.0992,-1.0995,-1.0998,0,0,0,0,0,0,-1.0367,-1.0384,-1.0533,-1.0467,-1.0486,-1.0525,-1.0565,-1.057,-1.0597,-1.0641,-1.0648,-1.0607,-1.0687,-1.0702,-1.078,-1.082,-1.0754,-1.076,-1.0989,-1.0993,-1.0996,-1.1025,0,0,0,0,0,0,-1.0361,-1.0383,-1.0414,-1.0468,-1.049,-1.06,-1.0567,-1.0574,-1.0608,-1.0605,-1.0662,-1.0669,-1.0686,-1.077,-1.0786,-1.0827,-1.0765,-1.0985,-1.099,-1.0995,-1.1021,-1.103,-1.1037,0,0,0,0,0,-1.0354,-1.0418,-1.0416,-1.0434,-1.053,-1.0602,-1.0615,-1.0633,-1.0611,-1.0644,-1.0673,-1.0667,-1.0812,-1.0778,-1.0796,-1.084,-1.0983,-1.0989,-1.0995,-1.1017,-1.1028,-1.1037,0,0,0,0,0,0,-1.0368,-1.0425,-1.0424,-1.0507,-1.055,-1.0601,-1.0643,-1.0643,-1.0693,-1.0689,-1.071,-1.0723,-1.0802,-1.0828,-1.079,-1.0926,-1.0895,-1.0905,-1.0906,-1.0917,-1.0924,-1.0917,-1.077,0,0,0,0,0,-1.0381,-1.0434,-1.0481,-1.055,-1.0572,-1.0604,-1.0636,-1.0646,-1.0692,-1.071,-1.0745,-1.079,-1.0846,-1.0882,-1.0936,-1.1024,-1.1038,-1.1063,-1.1071,-1.1077,-1.1086,-1.1138,-1.1151,-1.1017,-1.1017,-1.1017,0,0,-1.0408,-1.0446,-1.0478,-1.0554,-1.0589,-1.0645,-1.0619,-1.0679,-1.0722,-1.0719,-1.0796,-1.0823,-1.0875,-1.096,-1.0998,-1.0984,-1.1126,-1.1085,-1.109,-1.1095,-1.1145,-1.1158,-1.1169,-1.1021,-1.102,-1.1019,0,0,-1.0487,-1.052,-1.0582,-1.0617,-1.067,-1.0691,-1.0706,-1.0758,-1.0776,-1.0853,-1.0854,-1.0905,-1.1,-1.1038,-1.1069,-1.1164,-1.1163,-1.1181,-1.1224,-1.1274,-1.1285,-1.1294,-1.1331,-1.1343,-1.1189,-1.1189,-1.1189,0,-1.0514,-1.0598,-1.0614,-1.0675,-1.071,-1.071,-1.0775,-1.0808,-1.0876,-1.09,-1.0883,-1.1004,-1.1039,-1.1134,-1.1157,-1.1181,-1.1201,-1.1176,-1.1282,-1.1291,-1.13,-1.1336,-1.1349,-1.1191,-1.1191,-1.1191,-1.1191,0,-1.0631,-1.0689,-1.0733,-1.0799,-1.0838,-1.09,-1.0928,-1.0965,-1.0972,-1.0996,-1.1076,-1.1117,-1.1181,-1.1204,-1.121,-1.13,-1.129,-1.1277,-1.1246,-1.1315,-1.1349,-1.1362,-1.1194,-1.1194,-1.1193,-1.1193,0,0,-1.0722,-1.0796,-1.0813,-1.0844,-1.0902,-1.0948,-1.1011,-1.1073,-1.1107,-1.1153,-1.1209,-1.129,-1.1279,-1.1315,-1.1326,-1.1369,-1.1446,-1.1351,-1.1353,-1.137,-1.155,-1.1562,-1.1577,-1.1444,-1.1446,-1.1448,-1.1547,0,-1.0809,-1.092,-1.0938,-1.1037,-1.1092,-1.1094,-1.1149,-1.1192,-1.1216,-1.1267,-1.1294,-1.1352,-1.1331,-1.1354,-1.1397,-1.1427,-1.1483,-1.142,-1.1498,-1.15,-1.1487,-1.1594,-1.1606,-1.1697,-1.156,-1.1562,-1.1564,0,-1.0925,-1.0975,-1.108,-1.1133,-1.1157,-1.1207,-1.1266,-1.1314,-1.1364,-1.1378,-1.1419,-1.1426,-1.1493,-1.1459,-1.1553,-1.1511,-1.1543,-1.1563,-1.1567,-1.1577,-1.1538,-1.161,-1.1726,-1.1741,-1.1584,-1.1582,-1.1581,0,-1.0984,-1.1078,-1.1154,-1.118,-1.1243,-1.1278,-1.1306,-1.1353,-1.139,-1.1442,-1.1467,-1.1526,-1.1559,-1.1605,-1.1628,-1.16,-1.1723,-1.1689,-1.1739,-1.1739,-1.1766,-1.1765,-1.1892,-1.1783,-1.1783,-1.1783,-1.1782,0,-1.1081,-1.1146,-1.1182,-1.1228,-1.1302,-1.1321,-1.1394,-1.1421,-1.1463,-1.1516,-1.1521,-1.1571,-1.1597,-1.1652,-1.167,-1.1748,-1.1762,-1.1777,-1.1782,-1.1778,-1.1777,-1.1802,-1.1797,-1.1786,-1.1786,-1.1785,-1.1784,0,-1.116,-1.1187,-1.127,-1.1323,-1.1338,-1.139,-1.1436,-1.1483,-1.1506,-1.1574,-1.1591,-1.1629,-1.1693,-1.172,-1.18,-1.1812,-1.1902,-1.1901,-1.1886,-1.1888,-1.1937,-1.1933,-1.2087,-1.211,-1.1983,-1.1984,-1.1985,0,-1.1221,-1.1271,-1.133,-1.1366,-1.1396,-1.1453,-1.1491,-1.1513,-1.1552,-1.1613,-1.1653,-1.1717,-1.1771,-1.1874,-1.191,-1.1971,-1.1973,-1.2023,-1.1982,-1.1978,-1.1977,-1.1975,-1.1981,-1.2031,-1.2032,-1.2033,-1.2034,0,-1.1328,-1.1339,-1.1393,-1.1453,-1.1498,-1.1545,-1.1592,-1.1622,-1.1651,-1.1695,-1.1762,-1.1803,-1.1884,-1.195,-1.2013,-1.2044,-1.2045,-1.2046,-1.2061,-1.206,-1.205,-1.2059,-1.1909,-1.2043,-1.2042,-1.2041,-1.2041,-1.2041,-1.1402,-1.1448,-1.1497,-1.1558,-1.1595,-1.1639,-1.1686,-1.1716,-1.1772,-1.184,-1.1849,-1.1921,-1.1971,-1.2057,-1.209,-1.2147,-1.2135,-1.2156,-1.2162,-1.2168,-1.2173,-1.2039,-1.2159,-1.2158,-1.2158,-1.2158,-1.2158,0,-1.1511,-1.1543,-1.1599,-1.1665,-1.1713,-1.1709,-1.1761,-1.1802,-1.1865,-1.1911,-1.1964,-1.2041,-1.2105,-1.2146,-1.221,-1.2249,-1.2251,-1.2265,-1.2264,-1.2272,-1.2179,-1.216,-1.2262,-1.2262,-1.2262,-1.2262,-1.2262,-1.2262,-1.1574,-1.1652,-1.1669,-1.1766,-1.1798,-1.1868,-1.1899,-1.194,-1.1978,-1.2064,-1.2117,-1.2142,-1.2188,-1.2256,-1.2315,-1.2325,-1.235,-1.2366,-1.2376,-1.2288,-1.2278,-1.2267,-1.2251,-1.237,-1.237,-1.2464,-1.2465,-1.2466]},{"header":{"parameterUnit":"m.s-1","parameterCategory":1,"la1":30.2991,"la2":30.254,"lo1":-89.0895,"lo2":-89.0444,"dy":0.0017,"dx":0.0017,"nx":28,"ny":28,"refTime":"2024-10-09T03:00:00:Z","depth":0,"parameterNumber":3,"parameterNumberName":"V-component_of_WINDS"},"data":[0,0,0,0,0,0,0,0,0,0,0,0,0,0,0,0,0,0,0,0,0,0,0,0,0,0,0,0,0,0,0,0,0,0,0,0,0,0,0,0,0,0,0,0,0,0,0,0,0,0,0,0,0,0,0,0,0,0,-4.2418,-4.2418,0,-4.2427,-4.2427,-4.2427,-4.236,-4.2358,-4.2356,-4.2355,-4.2363,-4.2365,-4.2367,0,0,0,0,0,0,0,0,0,0,0,0,0,-4.2342,-4.2343,-4.2418,-4.2418,-4.2418,-4.2427,-4.2427,-4.2427,-4.2361,-4.2358,-4.2356,-4.2354,-4.2362,-4.2364,-4.2367,0,0,0,0,0,0,0,0,0,0,0,0,0,-4.2365,-4.2344,-4.2418,-4.2386,-4.2383,-4.2427,-4.2427,-4.2427,-4.2361,-4.2358,-4.2355,-4.2353,-4.2361,-4.2364,-4.2367,-4.2442,0,0,-4.2376,-4.2377,0,0,0,0,0,0,0,0,-4.2364,-4.2368,-4.239,-4.2388,-4.2385,-4.239,-4.2403,-4.2432,-4.2362,-4.2369,-4.2355,-4.2351,-4.2374,-4.2376,-4.2383,-4.2442,-4.2442,-4.2376,-4.2378,-4.2379,-4.238,0,0,0,0,0,0,0,-4.2362,-4.2367,-4.2421,-4.2391,-4.2388,-4.2371,-4.2371,-4.2408,-4.2387,-4.2368,-4.2364,-4.2366,-4.2372,-4.2381,-4.2383,-4.2442,-4.2376,-4.2379,-4.2381,-4.2382,-4.2565,-4.2567,0,0,0,0,0,0,-4.2365,-4.2366,-4.2421,-4.2421,-4.2367,-4.2375,-4.2375,-4.2391,-4.2387,-4.2383,-4.2368,-4.2363,-4.2377,-4.238,-4.2383,-4.2472,-4.2379,-4.2382,-4.2384,-4.2561,-4.2565,-4.2569,0,0,0,0,0,0,-4.2364,-4.2371,-4.2421,-4.2393,-4.2398,-4.2379,-4.2398,-4.2393,-4.2401,-4.2386,-4.2382,-4.2381,-4.2375,-4.2379,-4.2428,-4.2471,-4.2383,-4.2386,-4.2558,-4.2563,-4.2567,-4.2648,0,0,0,0,0,0,-4.2362,-4.2371,-4.2399,-4.2394,-4.24,-4.2466,-4.24,-4.2395,-4.2407,-4.24,-4.2398,-4.2394,-4.2373,-4.2424,-4.2431,-4.2473,-4.2388,-4.2554,-4.256,-4.2565,-4.2642,-4.2655,-4.2666,0,0,0,0,0,-4.2359,-4.242,-4.24,-4.2407,-4.2434,-4.2468,-4.2471,-4.2446,-4.2411,-4.2439,-4.2429,-4.2395,-4.2465,-4.243,-4.2437,-4.2481,-4.2551,-4.2558,-4.2565,-4.2636,-4.2652,-4.2666,0,0,0,0,0,0,-4.2429,-4.2419,-4.2397,-4.2458,-4.2465,-4.2457,-4.2491,-4.2464,-4.248,-4.2473,-4.244,-4.244,-4.2495,-4.2492,-4.2453,-4.2554,-4.2502,-4.2511,-4.2553,-4.2569,-4.2581,-4.2581,-4.2391,0,0,0,0,0,-4.2452,-4.2481,-4.247,-4.2525,-4.253,-4.2511,-4.2524,-4.2504,-4.251,-4.2512,-4.2506,-4.2512,-4.2536,-4.2552,-4.2573,-4.2641,-4.264,-4.2675,-4.2687,-4.2697,-4.2706,-4.2743,-4.2759,-4.2591,-4.2591,-4.2591,0,0,-4.2499,-4.2497,-4.2517,-4.2539,-4.2542,-4.2573,-4.2513,-4.2547,-4.257,-4.2517,-4.2563,-4.256,-4.2564,-4.2624,-4.265,-4.2623,-4.2752,-4.2706,-4.2715,-4.2717,-4.2752,-4.2768,-4.2782,-4.2596,-4.2595,-4.2594,0,0,-4.2601,-4.2602,-4.2649,-4.2653,-4.2659,-4.2646,-4.2657,-4.2654,-4.265,-4.2696,-4.2657,-4.2684,-4.2725,-4.273,-4.2739,-4.2845,-4.2814,-4.2852,-4.2918,-4.2955,-4.2968,-4.2979,-4.3019,-4.3033,-4.286,-4.2861,-4.2861,0,-4.2658,-4.2703,-4.2676,-4.2714,-4.2726,-4.268,-4.2728,-4.2733,-4.2745,-4.2754,-4.2724,-4.2776,-4.2776,-4.2837,-4.2864,-4.2871,-4.2884,-4.2853,-4.2968,-4.298,-4.299,-4.3027,-4.3042,-4.2865,-4.2865,-4.2864,-4.2864,0,-4.2775,-4.2807,-4.2844,-4.2858,-4.2874,-4.2916,-4.2896,-4.2915,-4.2894,-4.2884,-4.2933,-4.2932,-4.2952,-4.2965,-4.2944,-4.3024,-4.3008,-4.2974,-4.2921,-4.3011,-4.3046,-4.306,-4.2872,-4.287,-4.2869,-4.2868,0,0,-4.2919,-4.292,-4.2934,-4.2941,-4.2944,-4.2969,-4.301,-4.3031,-4.3048,-4.3058,-4.3093,-4.3129,-4.3099,-4.3108,-4.3088,-4.3121,-4.3207,-4.3083,-4.3082,-4.3107,-4.3297,-4.3323,-4.334,-4.3186,-4.3189,-4.3191,-4.3297,0,-4.302,-4.3091,-4.3068,-4.314,-4.317,-4.3128,-4.3164,-4.317,-4.3163,-4.3187,-4.3178,-4.3206,-4.3162,-4.3168,-4.3198,-4.319,-4.3245,-4.3182,-4.3219,-4.322,-4.322,-4.3358,-4.3385,-4.3485,-4.331,-4.3312,-4.3314,0,-4.3146,-4.3163,-4.3238,-4.3239,-4.3251,-4.3283,-4.3302,-4.3326,-4.3332,-4.3325,-4.3337,-4.331,-4.3351,-4.3298,-4.3355,-4.3313,-4.3326,-4.3325,-4.3328,-4.3331,-4.3273,-4.3366,-4.3516,-4.3531,-4.3334,-4.3333,-4.3331,0,-4.3246,-4.3287,-4.3338,-4.3345,-4.3347,-4.3371,-4.3373,-4.3377,-4.3392,-4.3408,-4.3418,-4.3438,-4.3449,-4.3466,-4.3446,-4.3409,-4.3506,-4.3451,-4.3502,-4.3502,-4.3524,-4.3523,-4.368,-4.3532,-4.3531,-4.3531,-4.3531,0,-4.3361,-4.3409,-4.3384,-4.3415,-4.3468,-4.3442,-4.3495,-4.3492,-4.3496,-4.3527,-4.3491,-4.352,-4.3491,-4.3518,-4.3503,-4.3553,-4.3558,-4.3553,-4.3549,-4.3557,-4.3558,-4.3566,-4.3559,-4.3535,-4.3534,-4.3533,-4.3533,0,-4.3482,-4.3467,-4.352,-4.3518,-4.3518,-4.3558,-4.3556,-4.3585,-4.3575,-4.3615,-4.3622,-4.3607,-4.3637,-4.3619,-4.3649,-4.3638,-4.3704,-4.369,-4.3703,-4.3699,-4.3751,-4.3747,-4.3919,-4.3942,-4.3778,-4.3779,-4.3781,0,-4.3557,-4.3593,-4.3596,-4.3614,-4.3619,-4.3648,-4.3664,-4.364,-4.3657,-4.3669,-4.3697,-4.3724,-4.3745,-4.3794,-4.3786,-4.3809,-4.3796,-4.3855,-4.3799,-4.3807,-4.3799,-4.3797,-4.3802,-4.3866,-4.3868,-4.387,-4.3871,0,-4.3692,-4.3683,-4.3707,-4.373,-4.375,-4.3766,-4.3779,-4.3796,-4.3772,-4.3794,-4.3825,-4.3841,-4.3872,-4.39,-4.392,-4.3922,-4.3893,-4.3889,-4.3902,-4.3911,-4.3918,-4.3917,-4.3735,-4.3885,-4.3883,-4.3882,-4.3882,-4.3881,-4.3793,-4.3824,-4.3831,-4.386,-4.3868,-4.3882,-4.391,-4.3905,-4.393,-4.3955,-4.3939,-4.3976,-4.3983,-4.4007,-4.4013,-4.4041,-4.4018,-4.4036,-4.4041,-4.4047,-4.4055,-4.3913,-4.4045,-4.4044,-4.4044,-4.4043,-4.4043,0,-4.3927,-4.3931,-4.3957,-4.3978,-4.4001,-4.3973,-4.3986,-4.4007,-4.4041,-4.405,-4.4072,-4.4108,-4.4135,-4.413,-4.4155,-4.4179,-4.4167,-4.4187,-4.4185,-4.4186,-4.4073,-4.406,-4.4196,-4.4196,-4.4196,-4.4196,-4.4196,-4.4196,-4.4,-4.4052,-4.4045,-4.4101,-4.4103,-4.414,-4.415,-4.4163,-4.4171,-4.4214,-4.4237,-4.4233,-4.4237,-4.4263,-4.4287,-4.4285,-4.4296,-4.4321,-4.4314,-4.4209,-4.4194,-4.418,-4.4167,-4.4324,-4.4324,-4.4425,-4.4426,-4.4427]}]]